Overview Statistics Trail Chart Weather Telemetry Raw packets
 

This is the latest recevied weather packets stored in our database for station/object EA2MKR. If no packets are shown the sender has not sent any weather packets the latest 10 day(s).

<< 110 111 112 113 114 115 >>
Time Temp. Humidity Pressure Rain* Wind** Luminosity Snow
1787796508 19.44° C 54% 948.3 hPa 0 mm - - -
1787796207 20° C 53% 948.3 hPa 0 mm - - -
1787795908 20° C 53% 948.4 hPa 0 mm - - -
1787795731 20° C 53% 948.4 hPa 0 mm - - -
1787795307 20° C 53% 948.5 hPa 0 mm - - -
1787795132 20° C 52% 948.5 hPa 0 mm - - -
1787794831 20° C 53% 948.4 hPa 0 mm - - -
1787794406 20° C 53% 948.6 hPa 0 mm - - -
1787794106 20° C 54% 948.5 hPa 0 mm - - -
1787793806 20° C 54% 948.4 hPa 0 mm - - -
1787793506 19.44° C 55% 948.5 hPa 0 mm - - -
1787793330 20° C 54% 948.4 hPa 0 mm - - -
1787792906 20° C 55% 948.3 hPa 0 mm - - -
1787792606 20.56° C 51% 948.3 hPa 0 mm - - -
1787792307 20.56° C 52% 948.4 hPa 0 mm - - -
1787792006 20° C 52% 948.5 hPa 0 mm - - -
1787791705 20° C 52% 948.4 hPa 0 mm - - -
1787791406 20° C 52% 948.3 hPa 0 mm - - -
1787791105 20.56° C 52% 948.4 hPa 0 mm - - -
1787790930 20.56° C 52% 948.4 hPa 0 mm - - -
1787790505 20.56° C 51% 948.4 hPa 0 mm - - -
1787790329 20.56° C 53% 948.7 hPa 0 mm - - -
1787789905 20.56° C 51% 948.5 hPa 0 mm - - -
1787789730 20.56° C 50% 948.5 hPa 0 mm - - -
1787789305 20.56° C 50% 948.6 hPa 0 mm - - -

* Rain latest hour (hover to see other rain measurements)
** Current wind speed in m/s (hover to see current wind gust speed)